Location: Pianadetto
(44.4000°N, 10.1000°E)
Time: 20:46:10
(UTC+00:00)

Cosmos 1536 Rocket - Pass Details

Date: 26 May 2022
Orbit: 604 x 632 km, 82.5° (Epoch: 04 July)

Event Time Altitude Azimuth Distance (km) Brightness Sun altitude
Exits shadow 02:08:09 22° 223° (SW) 1,374 4.7 -13.7°
Maximum altitude 02:10:37 42° 283° (WNW) 889 4.1 -13.4°
Drops below altitude 10° 02:14:49 10° 355° (N) 1,990 6.8 -12.9°
Sets 02:17:08 0° 3° (N) 2,895 7.8 -12.6°
